This demonstration page uses our WeatherBlox Daily Observations layout. Learn more.

Left ArrowRight Arrow

Hourly Observations for July 9, 2021

Temp ( °F °C ) Dew Point ( °F °C ) Humidity (%) Winds ( mph kmh ) Pressure ( in mb ) Visibility ( mi km ) Precip ( " mm )
12:56 am 00:56 Clear 77 25 63 17.2 62 62 S 18 30 29.79 1009 10 16 0.00 0.00
1:56 am 01:56 Clear 76 24.4 62 16.7 62 62 S 16 26 29.80 1009 10 16 0.00 0.00
2:56 am 02:56 Clear 72 22.2 63 17.2 73 73 SE 8 13 29.79 1009 10 16 0.00 0.00
3:56 am 03:56 Mostly Cloudy with Light Rain 71 21.7 65 18.3 81 81 SSE 24 39 29.75 1008 10 16 0.00 0.00
4:56 am 04:56 Clear 74 23.3 64 17.8 71 71 S 23 37 29.76 1008 10 16 0.00 0.00
5:32 am 05:32 Mostly Clear with Nearby Thunderstorms 75 24 64 18 69 69 N 21 33 29.86 1011 5 8 0.00 0.00
5:52 am 05:52 Mostly Clear 70 21 64 18 83 83 NE 12 19 29.87 1011 10 16 0.00 0.00
5:56 am 05:56 Clear 70 21.1 65 18.3 84 84 NE 12 19 29.88 1012 10 16 0.00 0.00
6:52 am 06:52 Partly Cloudy with Thunderstorms 70 21 64 18 83 83 E 10 17 29.88 1012 9 14 0.00 0.00
6:56 am 06:56 Partly Cloudy with Thunderstorms 69 20.6 65 18.3 87 87 E 13 20 29.88 1012 9 14 0.00 0.00
7:35 am 07:35 Sunny 70 21 66 19 88 88 ESE 13 20 29.86 1011 10 16 0.00 0.00
7:56 am 07:56 Sunny 71 21.7 66 18.9 84 84 SE 15 24 29.87 1011 10 16 0.00 0.00
8:56 am 08:56 Sunny 77 25 68 20 74 74 SSE 20 31 29.83 1010 10 16 0.00 0.00
9:56 am 09:56 Sunny 81 27.2 67 19.4 62 62 SSE 16 26 29.83 1010 10 16 0.00 0.00
10:56 am 10:56 Sunny 84 28.9 69 20.6 61 61 S 17 28 29.83 1010 10 16 0.00 0.00
11:56 am 11:56 Sunny 87 30.6 69 20.6 55 55 SSE 22 35 29.85 1011 10 16 0.00 0.00
12:56 pm 12:56 Sunny 88 31.1 71 21.7 57 57 SSW 13 20 29.86 1011 10 16 0.00 0.00
1:56 pm 13:56 Sunny 89 31.7 71 21.7 55 55 S 9 15 29.86 1011 10 16 0.00 0.00
2:56 pm 14:56 Sunny 90 32.2 72 22.2 56 56 S 12 19 29.84 1011 10 16 0.00 0.00
3:56 pm 15:56 Sunny 90 32.2 73 22.8 58 58 S 9 15 29.83 1010 10 16 0.00 0.00
4:56 pm 16:56 Sunny 92 33.3 72 22.2 52 52 SSE 9 15 29.81 1010 10 16 0.00 0.00
5:56 pm 17:56 Sunny 91 32.8 73 22.8 56 56 ESE 3 6 29.80 1009 10 16 0.00 0.00
6:56 pm 18:56 Sunny 89 31.7 76 24.4 65 65 NE 5 7 29.80 1009 10 16 0.00 0.00
7:56 pm 19:56 Sunny 86 30 76 24.4 72 72 NNE 7 11 29.79 1009 10 16 0.00 0.00
8:56 pm 20:56 Sunny 83 28.3 75 23.9 77 77 NNE 7 11 29.80 1009 10 16 0.00 0.00
9:56 pm 21:56 Cloudy with Thunderstorms 83 28.3 75 23.9 77 77 NNW 9 15 29.78 1009 10 16 0.00 0.00
10:26 pm 22:26 Mostly Cloudy with Nearby Thunderstorms 79 26 59 15 51 51 NW 48 78 29.83 1010 5 8 0.00 0.00
10:34 pm 22:34 Mostly Cloudy with Thunderstorms 70 21 61 16 73 73 NW 45 72 29.87 1011 4 6 0.02 0.51
10:56 pm 22:56 Windy with Storms Likely 66 18.9 61 16.1 84 84 NE 22 35 29.79 1009 10 16 0.12 3.05
11:03 pm 23:03 Mostly Cloudy with Nearby Thunderstorms 66 19 61 16 83 83 ENE 12 19 29.79 1009 10 16 0.00 0.00
11:12 pm 23:12 Mostly Clear with Nearby Thunderstorms 66 19 63 17 88 88 SSE 18 30 29.83 1010 10 16 0.00 0.00
11:25 pm 23:25 Clear with Nearby Thunderstorms 66 19 63 17 88 88 SSE 22 35 29.80 1009 10 16 0.00 0.00
11:33 pm 23:33 Clear 66 19 63 17 88 88 SSE 23 37 29.76 1008 10 16 0.00 0.00
11:56 pm 23:56 Clear 66 18.9 62 16.7 87 87 S 12 19 29.77 1008 10 16 0.00 0.00

Powered by AerisWeather